Regional Weather Roundup
Issued by NWS Cleveland, OH

Home | Current Version | Previous Version | Graphics & Text | Print | Product List | Glossary On
Versions: 1 2 3 4 5 6 7 8 9 10 11 12 13 14 15 16 17 18 19 20 21 22 23 24 25 26 27 28 29 30 31 32 33 34 35 36 37 38 39 40 41 42 43 44 45 46 47 48 49 50
000
ASUS41 KCLE 231002
RWRCLE
OHIO REGIONAL WEATHER ROUNDUP
NATIONAL WEATHER SERVICE CLEVELAND, OH
600 AM EDT TUE SEP 23 2014

NOTE: "FAIR" INDICATES FEW OR NO CLOUDS BELOW 12,000 FEET WITH NO
SIGNIFICANT WEATHER AND/OR OBSTRUCTIONS TO VISIBILITY.

OHZ001>008-015>018-024>027-034-035-043-044-231100-
   NORTHWEST OHIO

CITY           SKY/WX    TMP DP  RH WIND       PRES   REMARKS
DEFIANCE       CLEAR    N/A N/A N/A CALM      30.31S
FINDLAY        CLEAR     44  41  89 CALM      30.29S
TOLEDO EXPRESS CLEAR     42  40  92 CALM      30.30S
TOLEDO EXEC    CLEAR     45  41  86 SE3       30.31R
LIMA           CLEAR     43  40  89 CALM      30.30R
$$

OHZ009>014-019>023-028>033-038-089-231100-
   NORTHEAST OHIO

CITY           SKY/WX    TMP DP  RH WIND       PRES   REMARKS
CLE-HOPKINS    CLEAR     42  40  92 S3        30.33R
CLE-LAKEFRONT  CLEAR     47  42  83 S8        30.30R
CUY CO. ARPT   NOT AVBL
LORAIN-ELYRIA  CLEAR     44  40  85 CALM      30.32R
ASHTABULA      CLEAR     40  38  93 CALM      30.31S
AKRON-CANTON   CLEAR     43  38  82 CALM      30.31R
WOOSTER        FOG       37  35  92 CALM      30.32R VSB 3/4
MANSFIELD      CLEAR     41  40  96 S3        30.31R
YOUNGSTOWN     CLEAR     38  37  97 CALM      30.31R
$$

OHZ042-051>053-060>062-070>072-077>081-231100-
  SOUTHWEST OHIO

CITY           SKY/WX    TMP DP  RH WIND       PRES   REMARKS
CINC-COVINGTON CLEAR     49  44  83 CALM      30.30R
CINC-LUNKEN    CLEAR     42  41  96 CALM      30.32R
HAMILTON       CLEAR     40  39  97 CALM      30.32R
DAYTON         CLEAR     45  41  86 CALM      30.31R
WRIGHT-PAT AFB NOT AVBL
DAYTON GENERAL CLEAR     45  42  89 CALM      30.30R
WILMINGTON     CLEAR     39  36  89 SE3       30.30R
$$

OHZ036-037-039>041-045>050-054>059-063>069-073>076-082>088-231100-
  CENTRAL AND SOUTHEAST OHIO

CITY           SKY/WX    TMP DP  RH WIND       PRES   REMARKS
COLUMBUS       CLEAR     45  40  82 CALM      30.31R
OSU AIRPORT    CLEAR     42  40  92 E3        30.31R
BOLTON FIELD   CLEAR     38  38 100 CALM      30.32R
RICKENBACK AFB NOT AVBL
NEWARK         FOG       37  35  92 CALM      30.32R VSB 1/2
MARION         CLEAR     43  39  86 S5        30.31R
LANCASTER      CLEAR     37  35  92 CALM      30.32R
ZANESVILLE     CLEAR     38  35  89 CALM      30.32R
NEW PHILLY     FOG       40  40 100 CALM      30.33R VSB 1/4
$$



USA.gov is the U.S. government's official web portal to all federal, state and local government web resources and services.